Location: Quaker Farms
(41.4276°N, 73.1557°W)
Time: 11:49:30
(UTC+00:00)

A-11 Canister half - Visible Passes

Search period start: 13 June 2021 00:00
Search period end: 23 June 2021 00:00
Orbit: 1513 x 1686 km, 47.2° (Epoch: 12 June)

Date Brightness Start Highest point End Pass type
(mag) Time Alt. Az. Time Alt. Az. Time Alt. Az.
16 Jun 10.3 08:27:48 10° S 08:36:17 32° SE 08:44:33 10° ENE visible
17 Jun 10.3 08:05:08 10° S 08:13:25 30° SE 08:21:31 10° ENE visible
18 Jun 10.3 07:42:30 10° S 07:50:34 28° SE 07:58:28 10° ENE visible
19 Jun 10.3 07:20:31 12° S 07:27:42 26° SE 07:35:23 10° ENE visible
20 Jun 10.4 06:58:50 14° S 07:04:51 25° SE 07:12:16 10° E visible
21 Jun 10.4 06:37:06 16° SSE 06:42:00 23° SE 06:49:08 10° E visible
21 Jun 9.3 08:35:48 10° SW 08:45:48 69° SE 08:55:30 10° ENE visible
22 Jun 10.4 06:15:19 17° SSE 06:19:10 21° SE 06:25:58 10° E visible
22 Jun 9.3 08:13:30 12° SW 08:22:53 66° SE 08:32:33 10° ENE visible
